QPF
0.04 0.04 0.05 0.05 0.04 0.04 0.04 0.05 0.05 0.06 0.06 0.07 0.07 0.07 0.06 0.06 0.05 0.06 0.06 0.05 0.05 0.05 0.05 0.04 0.05 0.06 0.05 0.05 0.06 0.05 0.05 0.07 0.07 0.06 0.06 0.08 0.10 0.12
0.03 0.04 0.04 0.04 0.03 0.03 0.03 0.03 0.04 0.05 0.05 0.05 0.06 0.07 0.06 0.05 0.07 0.06 0.06 0.05 0.04 0.04 0.04 0.04 0.04 0.05 0.05 0.05 0.05 0.06 0.06 0.07 0.08 0.07 0.05 0.05 0.06 0.08
0.03 0.03 0.03 0.03 0.03 0.03 0.03 0.03 0.03 0.03 0.03 0.03 0.04 0.04 0.06 0.06 0.06 0.08 0.08 0.06 0.04 0.03 0.04 0.04 0.04 0.04 0.04 0.05 0.05 0.05 0.05 0.06 0.07 0.07 0.07 0.05 0.05 0.06
0.01 0.02 0.03 0.03 0.04 0.04 0.04 0.03 0.03 0.03 0.03 0.04 0.04 0.04 0.06 0.08 0.08 0.08 0.07 0.06 0.05 0.04 0.03 0.04 0.04 0.04 0.04 0.04 0.05 0.05 0.04 0.04 0.05 0.05 0.05 0.05 0.05 0.06
0.01 0.01 0.01 0.02 0.03 0.04 0.03 0.03 0.03 0.02 0.03 0.03 0.04 0.05 0.07 0.08 0.10 0.09 0.07 0.07 0.05 0.04 0.04 0.04 0.04 0.04 0.04 0.05 0.05 0.05 0.05 0.04 0.04 0.04 0.04 0.04 0.05 0.04
0.01 0.01 0.01 0.01 0.02 0.02 0.03 0.04 0.04 0.04 0.04 0.03 0.03 0.04 0.07 0.07 0.07 0.08 0.09 0.08 0.06 0.05 0.04 0.04 0.04 0.04 0.04 0.04 0.06 0.07 0.07 0.06 0.05 0.05 0.05 0.04 0.05 0.05
0.01 0.02 0.01 0.01 0.01 0.02 0.02 0.02 0.03 0.03 0.03 0.04 0.05 0.06 0.09 0.07 0.07 0.07 0.07 0.07 0.06 0.06 0.05 0.05 0.05 0.05 0.06 0.05 0.05 0.07 0.08 0.09 0.09 0.08 0.09 0.08 0.07 0.08
0.01 0.01 0.02 0.02 0.02 0.02 0.01 0.01 0.01 0.02 0.03 0.04 0.04 0.05 0.08 0.07 0.06 0.06 0.05 0.04 0.05 0.04 0.04 0.05 0.04 0.05 0.07 0.06 0.04 0.05 0.05 0.06 0.08 0.09 0.10 0.10 0.09 0.08
0.02 0.02 0.01 0.01 0.02 0.02 0.02 0.01 0.01 0.01 0.01 0.02 0.02 0.03 0.03 0.03 0.03 0.04 0.04 0.04 0.04 0.04 0.04 0.04 0.03 0.04 0.03 0.03 0.03 0.03 0.03 0.04 0.05 0.07 0.08 0.09 0.08 0.08
0.02 0.02 0.02 0.02 0.02 0.02 0.02 0.02 0.01 0.01 0.01 0.02 0.02 0.03 0.03 0.03 0.03 0.03 0.03 0.03 0.04 0.04 0.04 0.05 0.04 0.04 0.04 0.03 0.03 0.03 0.03 0.03 0.04 0.05 0.06 0.08 0.08 0.08
0.01 0.02 0.02 0.02 0.02 0.01 0.01 0.01 0.01 0.01 0.01 0.01 0.01 0.02 0.02 0.02 0.02 0.03 0.04 0.04 0.04 0.05 0.05 0.06 0.06 0.06 0.05 0.04 0.03 0.02 0.02 0.03 0.03 0.05 0.05 0.07 0.09 0.09
0.01 0.01 0.02 0.02 0.03 0.02 0.01 0.01 0.01 0.01 0.02 0.02 0.02 0.02 0.02 0.02 0.02 0.03 0.04 0.05 0.05 0.05 0.05 0.06 0.06 0.07 0.06 0.04 0.03 0.03 0.03 0.03 0.03 0.04 0.05 0.06 0.07 0.07
0.01 0.01 0.02 0.02 0.02 0.03 0.02 0.01 0.01 0.02 0.02 0.02 0.03 0.03 0.03 0.04 0.04 0.04 0.05 0.06 0.07 0.06 0.06 0.09 0.07 0.08 0.08 0.06 0.05 0.04 0.04 0.04 0.05 0.05 0.05 0.05 0.05 0.06
0.02 0.02 0.03 0.02 0.02 0.02 0.02 0.01 0.01 0.01 0.01 0.02 0.03 0.03 0.04 0.04 0.05 0.06 0.07 0.08 0.08 0.07 0.07 0.08 0.08 0.09 0.08 0.06 0.06 0.06 0.06 0.06 0.07 0.06 0.05 0.06 0.06 0.06
0.02 0.03 0.03 0.03 0.03 0.02 0.02 0.02 0.02 0.01 0.02 0.02 0.02 0.03 0.04 0.04 0.04 0.04 0.06 0.09 0.10 0.10 0.08 0.07 0.07 0.07 0.08 0.07 0.06 0.06 0.08 0.07 0.06 0.07 0.07 0.07 0.06 0.06
0.02 0.02 0.03 0.03 0.03 0.02 0.03 0.03 0.03 0.03 0.03 0.03 0.02 0.03 0.03 0.04 0.05 0.04 0.05 0.06 0.06 0.10 0.11 0.09 0.09 0.09 0.08 0.06 0.06 0.06 0.08 0.07 0.05 0.06 0.07 0.06 0.06 0.06
0.01 0.02 0.03 0.03 0.03 0.02 0.03 0.03 0.04 0.04 0.04 0.03 0.03 0.03 0.03 0.04 0.04 0.04 0.04 0.04 0.05 0.08 0.10 0.12 0.12 0.13 0.13 0.11 0.09 0.10 0.09 0.08 0.08 0.07 0.08 0.07 0.06 0.06
0.02 0.03 0.03 0.02 0.02 0.02 0.02 0.03 0.03 0.03 0.04 0.04 0.04 0.04 0.03 0.03 0.03 0.04 0.04 0.04 0.05 0.06 0.08 0.08 0.10 0.12 0.10 0.09 0.13 0.15 0.13 0.10 0.09 0.10 0.10 0.09 0.07 0.06
0.03 0.03 0.02 0.02 0.01 0.01 0.01 0.02 0.02 0.02 0.03 0.03 0.03 0.03 0.03 0.03 0.04 0.04 0.04 0.05 0.04 0.04 0.05 0.06 0.07 0.09 0.09 0.08 0.08 0.10 0.12 0.11 0.12 0.12 0.10 0.09 0.08 0.08
0.02 0.02 0.01 0.01 0.01 0.01 0.01 0.01 0.02 0.02 0.03 0.03 0.04 0.03 0.03 0.03 0.03 0.03 0.03 0.03 0.03 0.03 0.03 0.04 0.05 0.07 0.08 0.08 0.08 0.07 0.09 0.12 0.14 0.15 0.12 0.10 0.09 0.09
0.02 0.01 0.01 0.02 0.02 0.02 0.02 0.02 0.02 0.02 0.02 0.03 0.03 0.04 0.04 0.03 0.03 0.02 0.02 0.02 0.02 0.03 0.04 0.03 0.03 0.04 0.06 0.07 0.07 0.06 0.07 0.08 0.10 0.10 0.10 0.10 0.11 0.11
0.01 0.01 0.01 0.01 0.02 0.01 0.01 0.01 0.01 0.01 0.01 0.02 0.02 0.03 0.03 0.04 0.03 0.03 0.03 0.02 0.02 0.02 0.03 0.03 0.03 0.04 0.05 0.05 0.06 0.06 0.06 0.06 0.07 0.07 0.07 0.07 0.07 0.08
0.01 0.01 0.01 0.01 0.01 0.01 0.00 0.00 0.01 0.01 0.01 0.01 0.01 0.01 0.02 0.02 0.03 0.03 0.03 0.02 0.02 0.02 0.02 0.03 0.03 0.03 0.03 0.03 0.04 0.05 0.06 0.07 0.08 0.09 0.07 0.05 0.04 0.04
MSLP
1006.97 1007.00 1007.16 1007.42 1007.75 1008.11 1008.45 1008.75 1008.98 1009.15 1009.28 1009.40 1009.53 1009.70 1009.95 1010.28 1010.70 1011.20 1011.76 1012.36 1012.96 1013.55 1014.08 1014.54 1014.90 1015.17 1015.33 1015.41 1015.42 1015.39 1015.34 1015.30 1015.27 1015.26 1015.26 1015.24 1015.18 1015.05
1006.51 1006.54 1006.69 1006.96 1007.29 1007.66 1008.02 1008.33 1008.59 1008.80 1008.96 1009.10 1009.26 1009.46 1009.73 1010.07 1010.51 1011.01 1011.58 1012.19 1012.81 1013.41 1013.95 1014.43 1014.82 1015.12 1015.31 1015.42 1015.46 1015.45 1015.42 1015.39 1015.37 1015.37 1015.37 1015.37 1015.34 1015.25
1006.13 1006.16 1006.31 1006.56 1006.89 1007.26 1007.62 1007.95 1008.23 1008.47 1008.67 1008.86 1009.05 1009.29 1009.58 1009.95 1010.39 1010.90 1011.47 1012.07 1012.68 1013.27 1013.82 1014.31 1014.72 1015.04 1015.27 1015.42 1015.50 1015.52 1015.52 1015.51 1015.51 1015.51 1015.53 1015.54 1015.53 1015.48
1005.91 1005.93 1006.07 1006.31 1006.62 1006.97 1007.33 1007.67 1007.98 1008.25 1008.49 1008.72 1008.96 1009.23 1009.56 1009.94 1010.38 1010.89 1011.43 1012.01 1012.59 1013.15 1013.69 1014.17 1014.58 1014.92 1015.18 1015.37 1015.49 1015.56 1015.60 1015.62 1015.64 1015.66 1015.69 1015.70 1015.71 1015.69
1005.90 1005.91 1006.03 1006.25 1006.54 1006.88 1007.23 1007.57 1007.89 1008.18 1008.46 1008.73 1009.01 1009.31 1009.66 1010.05 1010.48 1010.96 1011.46 1011.99 1012.52 1013.03 1013.52 1013.97 1014.37 1014.72 1015.00 1015.22 1015.39 1015.52 1015.61 1015.67 1015.72 1015.77 1015.81 1015.84 1015.86 1015.86
1006.11 1006.12 1006.23 1006.42 1006.69 1007.00 1007.34 1007.67 1007.99 1008.30 1008.60 1008.90 1009.20 1009.52 1009.87 1010.25 1010.66 1011.10 1011.54 1012.00 1012.46 1012.90 1013.32 1013.72 1014.09 1014.42 1014.72 1014.97 1015.18 1015.36 1015.50 1015.62 1015.72 1015.80 1015.87 1015.92 1015.96 1015.98
1006.49 1006.51 1006.61 1006.80 1007.04 1007.33 1007.64 1007.96 1008.27 1008.58 1008.88 1009.19 1009.50 1009.82 1010.16 1010.52 1010.88 1011.26 1011.63 1012.01 1012.37 1012.73 1013.08 1013.41 1013.73 1014.03 1014.32 1014.60 1014.85 1015.07 1015.28 1015.45 1015.61 1015.73 1015.84 1015.92 1015.98 1016.02
1006.99 1007.02 1007.13 1007.31 1007.54 1007.80 1008.09 1008.38 1008.68 1008.97 1009.26 1009.55 1009.84 1010.15 1010.46 1010.78 1011.09 1011.40 1011.70 1011.98 1012.26 1012.52 1012.78 1013.04 1013.30 1013.57 1013.84 1014.12 1014.40 1014.67 1014.92 1015.16 1015.36 1015.54 1015.69 1015.81 1015.89 1015.95
1007.52 1007.58 1007.70 1007.88 1008.10 1008.35 1008.61 1008.88 1009.14 1009.40 1009.65 1009.91 1010.18 1010.44 1010.71 1010.98 1011.24 1011.48 1011.71 1011.91 1012.10 1012.28 1012.46 1012.64 1012.84 1013.06 1013.31 1013.58 1013.86 1014.16 1014.45 1014.73 1014.99 1015.22 1015.41 1015.56 1015.67 1015.74
1008.03 1008.11 1008.25 1008.44 1008.67 1008.90 1009.14 1009.37 1009.59 1009.80 1010.02 1010.23 1010.44 1010.66 1010.88 1011.10 1011.30 1011.49 1011.65 1011.79 1011.91 1012.02 1012.13 1012.25 1012.39 1012.56 1012.77 1013.01 1013.28 1013.58 1013.89 1014.19 1014.48 1014.74 1014.97 1015.14 1015.27 1015.36
1008.48 1008.59 1008.76 1008.96 1009.18 1009.41 1009.62 1009.81 1009.99 1010.15 1010.30 1010.46 1010.62 1010.78 1010.95 1011.12 1011.28 1011.43 1011.55 1011.65 1011.72 1011.79 1011.84 1011.91 1012.00 1012.11 1012.27 1012.47 1012.71 1012.97 1013.27 1013.56 1013.85 1014.12 1014.36 1014.55 1014.69 1014.78
1008.90 1009.04 1009.22 1009.43 1009.65 1009.85 1010.03 1010.18 1010.31 1010.41 1010.51 1010.60 1010.71 1010.82 1010.95 1011.08 1011.21 1011.33 1011.43 1011.51 1011.56 1011.60 1011.62 1011.65 1011.69 1011.75 1011.85 1011.99 1012.16 1012.38 1012.62 1012.88 1013.14 1013.38 1013.61 1013.79 1013.93 1014.02
1009.33 1009.47 1009.66 1009.86 1010.06 1010.23 1010.38 1010.48 1010.56 1010.60 1010.64 1010.68 1010.73 1010.80 1010.89 1011.00 1011.11 1011.22 1011.32 1011.39 1011.44 1011.47 1011.48 1011.48 1011.48 1011.49 1011.52 1011.59 1011.68 1011.82 1011.98 1012.17 1012.37 1012.57 1012.75 1012.90 1013.02 1013.10
1009.80 1009.92 1010.09 1010.26 1010.43 1010.56 1010.66 1010.72 1010.74 1010.74 1010.72 1010.72 1010.73 1010.76 1010.82 1010.91 1011.02 1011.13 1011.23 1011.32 1011.38 1011.41 1011.41 1011.39 1011.35 1011.31 1011.28 1011.27 1011.28 1011.32 1011.39 1011.49 1011.60 1011.73 1011.85 1011.96 1012.06 1012.13
1010.31 1010.40 1010.51 1010.64 1010.75 1010.83 1010.88 1010.89 1010.86 1010.82 1010.77 1010.72 1010.71 1010.72 1010.76 1010.84 1010.95 1011.06 1011.18 1011.27 1011.34 1011.38 1011.38 1011.34 1011.27 1011.19 1011.09 1011.01 1010.93 1010.88 1010.86 1010.86 1010.89 1010.94 1011.00 1011.07 1011.13 1011.19
1010.83 1010.85 1010.90 1010.95 1011.00 1011.03 1011.02 1010.99 1010.93 1010.85 1010.78 1010.71 1010.68 1010.68 1010.72 1010.79 1010.89 1011.01 1011.12 1011.23 1011.30 1011.34 1011.33 1011.28 1011.18 1011.06 1010.92 1010.77 1010.63 1010.50 1010.40 1010.32 1010.28 1010.27 1010.28 1010.31 1010.36 1010.42
1011.29 1011.23 1011.19 1011.17 1011.15 1011.12 1011.07 1011.00 1010.92 1010.83 1010.75 1010.68 1010.64 1010.64 1010.67 1010.74 1010.83 1010.94 1011.04 1011.14 1011.20 1011.23 1011.21 1011.14 1011.03 1010.88 1010.70 1010.52 1010.33 1010.16 1010.01 1009.89 1009.80 1009.76 1009.75 1009.77 1009.82 1009.89
1011.59 1011.45 1011.34 1011.24 1011.16 1011.08 1010.99 1010.91 1010.82 1010.73 1010.66 1010.60 1010.57 1010.57 1010.60 1010.65 1010.72 1010.81 1010.89 1010.96 1011.00 1011.00 1010.96 1010.88 1010.75 1010.59 1010.41 1010.21 1010.01 1009.83 1009.67 1009.54 1009.46 1009.42 1009.42 1009.47 1009.55 1009.67
1011.69 1011.48 1011.30 1011.14 1011.01 1010.90 1010.80 1010.72 1010.64 1010.58 1010.52 1010.48 1010.46 1010.46 1010.47 1010.50 1010.55 1010.59 1010.64 1010.66 1010.67 1010.64 1010.58 1010.48 1010.34 1010.18 1010.00 1009.82 1009.64 1009.48 1009.35 1009.26 1009.22 1009.22 1009.27 1009.37 1009.52 1009.70
1011.58 1011.31 1011.08 1010.89 1010.73 1010.61 1010.52 1010.45 1010.40 1010.36 1010.33 1010.31 1010.29 1010.28 1010.28 1010.28 1010.28 1010.28 1010.27 1010.25 1010.21 1010.15 1010.06 1009.95 1009.81 1009.66 1009.50 1009.35 1009.21 1009.10 1009.03 1009.00 1009.02 1009.10 1009.22 1009.41 1009.63 1009.90
1011.28 1010.99 1010.74 1010.53 1010.37 1010.26 1010.19 1010.15 1010.12 1010.11 1010.10 1010.09 1010.07 1010.05 1010.01 1009.98 1009.93 1009.87 1009.81 1009.74 1009.66 1009.56 1009.46 1009.33 1009.21 1009.07 1008.94 1008.83 1008.74 1008.68 1008.67 1008.71 1008.81 1008.96 1009.18 1009.45 1009.77 1010.13
1010.89 1010.59 1010.34 1010.15 1010.01 1009.92 1009.87 1009.85 1009.85 1009.86 1009.85 1009.84 1009.80 1009.75 1009.68 1009.59 1009.50 1009.39 1009.28 1009.17 1009.06 1008.94 1008.82 1008.70 1008.58 1008.47 1008.37 1008.29 1008.24 1008.23 1008.27 1008.37 1008.53 1008.76 1009.04 1009.39 1009.79 1010.23
1010.49 1010.21 1009.99 1009.81 1009.70 1009.64 1009.61 1009.61 1009.61 1009.61 1009.60 1009.55 1009.49 1009.39 1009.28 1009.14 1009.00 1008.86 1008.72 1008.58 1008.45 1008.33 1008.22 1008.11 1008.01 1007.92 1007.84 1007.78 1007.76 1007.77 1007.84 1007.96 1008.15 1008.41 1008.74 1009.14 1009.59 1010.09
Thickness
5634 5631 5629 5628 5626 5625 5622 5619 5617 5617 5621 5622 5622 5622 5620 5619 5617 5617 5616 5615 5614 5613 5613 5613 5614 5616 5617 5620 5622 5624 5625 5626 5627 5628 5630 5631 5632 5633
5629 5626 5624 5624 5622 5621 5619 5617 5615 5613 5614 5618 5617 5617 5615 5614 5613 5612 5612 5611 5610 5609 5609 5609 5610 5611 5612 5613 5615 5617 5618 5619 5620 5622 5623 5624 5626 5627
5626 5624 5621 5620 5618 5618 5616 5614 5612 5611 5609 5613 5614 5613 5611 5609 5609 5608 5609 5609 5610 5607 5606 5606 5606 5606 5606 5607 5610 5611 5612 5613 5614 5616 5617 5618 5619 5621
5623 5621 5619 5617 5614 5613 5611 5610 5609 5607 5605 5605 5607 5608 5607 5606 5605 5604 5606 5607 5606 5605 5603 5602 5602 5601 5601 5602 5604 5605 5607 5608 5609 5610 5612 5613 5615 5615
5621 5618 5616 5614 5611 5610 5608 5607 5607 5606 5604 5603 5605 5605 5605 5604 5602 5602 5602 5601 5602 5603 5601 5599 5598 5598 5598 5599 5599 5600 5602 5603 5604 5605 5607 5608 5609 5610
5619 5616 5614 5612 5609 5606 5605 5603 5603 5602 5601 5601 5602 5603 5602 5602 5599 5600 5599 5600 5599 5600 5598 5597 5596 5595 5595 5595 5596 5596 5597 5598 5599 5601 5602 5603 5604 5605
5616 5614 5612 5608 5605 5602 5601 5600 5599 5598 5598 5598 5598 5599 5599 5597 5596 5596 5595 5595 5596 5595 5594 5595 5595 5594 5594 5593 5592 5592 5593 5594 5595 5597 5598 5599 5599 5600
5613 5611 5610 5608 5604 5599 5596 5594 5592 5592 5593 5592 5593 5592 5592 5593 5591 5589 5590 5590 5590 5592 5589 5590 5591 5591 5592 5592 5591 5590 5589 5590 5591 5593 5594 5595 5595 5595
5610 5608 5608 5607 5602 5600 5597 5593 5591 5588 5585 5586 5588 5587 5587 5588 5585 5584 5584 5583 5583 5585 5583 5584 5587 5587 5588 5588 5586 5585 5585 5585 5587 5588 5589 5590 5590 5591
5607 5606 5604 5601 5599 5594 5593 5593 5592 5591 5587 5585 5584 5583 5583 5581 5579 5577 5578 5578 5579 5581 5579 5578 5582 5583 5585 5584 5581 5580 5580 5581 5582 5583 5584 5585 5585 5586
5607 5605 5601 5598 5591 5587 5587 5588 5589 5588 5586 5582 5579 5577 5574 5572 5570 5571 5573 5575 5576 5578 5578 5576 5577 5578 5579 5580 5579 5577 5577 5577 5577 5578 5579 5580 5580 5579
5605 5603 5598 5592 5587 5582 5583 5583 5583 5583 5582 5581 5577 5575 5574 5572 5568 5566 5569 5570 5571 5573 5575 5572 5572 5573 5573 5576 5577 5576 5574 5573 5573 5574 5574 5574 5574 5574
5603 5601 5597 5588 5583 5579 5576 5577 5576 5574 5576 5576 5577 5576 5574 5572 5570 5567 5565 5564 5565 5566 5569 5567 5567 5568 5567 5570 5572 5574 5574 5574 5572 5572 5571 5570 5570 5570
5597 5597 5593 5584 5580 5577 5575 5573 5570 5568 5572 5574 5574 5572 5570 5568 5567 5565 5563 5561 5560 5560 5561 5561 5561 5561 5561 5563 5566 5569 5570 5571 5572 5573 5573 5570 5567 5566
5593 5589 5584 5580 5577 5577 5574 5570 5568 5569 5570 5569 5567 5566 5565 5564 5562 5560 5560 5558 5558 5558 5559 5558 5557 5557 5557 5558 5561 5564 5565 5567 5569 5570 5570 5570 5568 5566
5590 5587 5582 5579 5576 5573 5572 5571 5569 5567 5565 5563 5562 5562 5560 5559 5558 5558 5557 5557 5556 5557 5557 5555 5554 5553 5552 5554 5555 5558 5560 5562 5564 5565 5566 5566 5566 5566
5582 5584 5584 5582 5579 5575 5573 5570 5567 5565 5562 5559 5558 5556 5555 5555 5555 5554 5553 5552 5552 5552 5553 5552 5551 5549 5549 5548 5550 5553 5556 5557 5559 5560 5559 5559 5561 5562
5577 5581 5579 5576 5572 5570 5567 5565 5563 5560 5557 5554 5552 5550 5550 5550 5549 5550 5548 5547 5546 5546 5547 5547 5547 5546 5546 5547 5545 5547 5550 5552 5553 5553 5553 5553 5555 5557
5577 5577 5573 5569 5566 5564 5562 5559 5557 5554 5551 5549 5547 5545 5544 5543 5543 5543 5543 5541 5541 5541 5542 5542 5542 5541 5540 5542 5545 5542 5544 5546 5545 5546 5547 5548 5549 5550
5575 5572 5567 5563 5560 5557 5554 5552 5550 5548 5545 5542 5540 5538 5536 5536 5536 5536 5536 5534 5534 5535 5536 5537 5536 5536 5535 5535 5537 5538 5536 5538 5539 5539 5540 5542 5542 5541
5572 5567 5563 5559 5555 5551 5548 5545 5542 5540 5536 5533 5532 5530 5529 5528 5528 5528 5528 5527 5525 5528 5528 5529 5530 5528 5530 5531 5531 5534 5533 5530 5531 5531 5533 5534 5535 5535
5566 5562 5557 5553 5549 5545 5542 5539 5536 5533 5530 5527 5524 5522 5521 5520 5519 5519 5520 5521 5521 5521 5521 5522 5523 5524 5525 5525 5526 5527 5528 5527 5525 5522 5521 5523 5525 5528
5560 5556 5552 5549 5544 5540 5536 5532 5528 5525 5521 5517 5515 5514 5513 5513 5512 5512 5512 5513 5513 5514 5514 5515 5516 5516 5517 5518 5519 5520 5520 5520 5519 5518 5518 5516 5516 5515